Regional Weather Roundup
Issued by NWS

Home | Current Version | Previous Version | Text Only | Print | Product List | Glossary Off
Versions: 1 2 3 4 5 6 7 8 9 10 11 12 13 14 15 16 17 18 19 20 21 22 23 24 25 26 27 28 29 30 31 32 33 34 35 36 37 38 39 40 41 42 43 44 45 46 47 48 49 50

000
ASUS45 KABQ 201601
RWRNM
NEW MEXICO REGIONAL WEATHER ROUNDUP
NATIONAL WEATHER SERVICE ALBUQUERQUE NM
900 AM MST MON NOV 20 2017

NOTE: "FAIR" MEANS FEW OR NO CLOUDS BELOW 12,000 FEET AGL WITH NO
       SIGNIFICANT WEATHER OR OBSTRUCTIONS TO VISION.

      THIS PRODUCT IS RELEASED AS TWO VERSIONS.  ONE VERSION NEAR
      THE TOP OF THE HOUR CONTAINING PRELIMINARY DATA FROM ALBUQUERQUE
      AND OTHER STATIONS.  A FINAL VERSION WITH ADDITIONAL DATA IS
      ISSUED ABOUT 10 MINUTES AFTER THE HOUR.

NMZ501-503-504-510>518-201700-
NORTHWEST PLATEAU/NORTHCENTRAL MOUNTAINS

CITY           SKY/WX    TMP DP  RH WIND       PRES   REMARKS
FARMINGTON     FAIR      24   9  52 E5        30.22R WCI  18
LOS ALAMOS     FAIR      35   1  23 CALM      30.17S
SANTA FE       FAIR      35   8  32 CALM      30.15F
TAOS           FAIR      27   7  42 CALM      30.20F
ANGEL FIRE     FAIR      35   0  22 SW10      30.16S WCI  28

$$
NMZ402-403-502-505>509-201700-
WESTCENTRAL MOUNTAINS/SOUTHWEST MOUNTAINS

CITY           SKY/WX    TMP DP  RH WIND       PRES   REMARKS
GALLUP         FAIR      26   7  44 CALM      30.23F
GRANTS         FAIR      25   2  37 CALM      30.24S
SILVER CITY    FAIR      48  13  24 NW10      30.21R

$$
NMZ407-409-411-412-201700-
SOUTHERN DESERTS

CITY           SKY/WX    TMP DP  RH WIND       PRES   REMARKS
DEMING         FAIR      41  15  35 CALM      30.20R
LAS CRUCES     FAIR      50  15  24 CALM      30.19S
HOLLOMAN AFB   FAIR      44  18  34 CALM      30.19F
ALAMOGORDO     FAIR      41  18  38 CALM      30.18F
T OR C         FAIR      43   8  23 CALM      30.19S

$$
NMZ519>523-201700-
CENTRAL VALLEYS/CENTRAL HIGHLANDS

CITY           SKY/WX    TMP DP  RH WIND       PRES   REMARKS
ALBUQUERQUE    PTSUNNY   38   8  29 CALM      30.18F
DOUBLE EAGLE   MOSUNNY   45   7  21 CALM      30.18F
MORIARTY ARPT  FAIR      35   7  30 CALM      30.16F
CLINES CORNERS FAIR      40  -4  15 W24       30.13F WCI  29
BELEN          FAIR      34   6  30 CALM      30.20S
SOCORRO        FAIR      38   5  25 N7        30.20F WCI  32

$$
NMZ524>526-539-540-201700-
SOUTHCENTRAL MOUNTAINS

CITY           SKY/WX    TMP DP  RH WIND       PRES   REMARKS
RUIDOSO        FAIR      50   1  13 NW12G20   30.18F

$$
NMZ527>531-201700-
NORTHEAST HIGHLANDS/NORTHEAST PLAINS

CITY           SKY/WX    TMP DP  RH WIND       PRES   REMARKS
LAS VEGAS      FAIR      39   0  19 N3        30.06S
RATON          FAIR      35  12  38 NE6       30.01F WCI  30
CLAYTON        FAIR      49  11  21 W8        29.94F

$$
NMZ532>537-201700-
EASTCENTRAL PLAINS

CITY           SKY/WX    TMP DP  RH WIND       PRES   REMARKS
SANTA ROSA     FAIR      55   5  13 NW9       30.00F
TUCUMCARI      FAIR      46   9  22 W10       29.96F
CANNON AFB     FAIR      47  11  23 W16       30.02S
CLOVIS AIRPORT FAIR      48  12  23 W18       30.00F

$$
NMZ028-029-538-201700-
SOUTHEAST PLAINS

CITY           SKY/WX    TMP DP  RH WIND       PRES   REMARKS
ROSWELL        FAIR      40  17  39 CALM      30.07R
ARTESIA        FAIR      41  14  33 CALM      30.09R
CARLSBAD       FAIR      44  25  47 S3        30.08R
HOBBS          SUNNY     48  25  40 SW7       30.07F


$$




USA.gov is the U.S. government's official web portal to all federal, state and local government web resources and services.